Beaufort, NC

8:41 PM EST on December 13, 2019 (GMT -0500)
Smith

Weather History for KMRH - October, 2019

Change the Weather History Date:

Thursday, October 17, 2019

  Actual Average Record
Temperature  
Mean Temperature 58 °F -  
Max Temperature 66 °F 76 °F 83 °F (1967)
Min Temperature 52 °F 55 °F 40 °F (1977)
Degree Days  
Heating Degree Days 7    
Growing Degree Days 8 (Base 50)    
Moisture  
Dew Point 43 °F    
Average Humidity 56    
Maximum Humidity 66    
Minimum Humidity 45    
Precipitation  
Precipitation 0.00 in - - ()
Sea Level Pressure  
Sea Level Pressure 29.82 in    
Wind  
Wind Speed 17 mph (WNW)    
Max Wind Speed 20 mph    
Max Gust Speed 29 mph    
Visibility 10 miles    
Events      
Averages and records for this station are not official NWS values.
T = Trace of Precipitation, MM = Missing Value Source: NWS Daily Summary

Daily Weather History Graph

Daily Weather History Graph

Search for Another Location

Airport or City:

Astronomy

Oct. 17, 2019 Rise Set
Actual Time 7:13 AM EDT 6:29 PM EDT
Civil Twilight 6:48 AM EDT 6:55 PM EDT
Nautical Twilight 6:18 AM EDT 7:24 PM EDT
Astronomical Twilight 5:49 AM EDT 7:53 PM EDT
Moon 9:07 PM EDT (10/17) 10:36 AM EDT (10/17)
Length of Visible Light 12h 06m
Length of Day
11h 15m
Waning Gibbous, 87% of the Moon is Illuminated
Oct 17
Waning Gibbous
Oct 21
Last Quarter
Oct 27
New
Nov 4
First Quarter
Nov 12
Full

Hourly Weather History & Observations

Time (EDT) Temp. Dew Point Humidity Pressure Visibility Wind Dir Wind Speed Gust Speed Precip Events Conditions
12:58 AM 60.1 °F 46.9 °F 62% 29.75 in 10.0 mi NW 19.6 mph 26.5 mph N/A   Clear
1:58 AM 59.0 °F 45.0 °F 60% 29.77 in 10.0 mi NW 17.3 mph 26.5 mph N/A   Clear
2:58 AM 57.0 °F 45.0 °F 64% 29.77 in 10.0 mi NW 19.6 mph 24.2 mph N/A   Clear
3:58 AM 55.0 °F 43.0 °F 64% 29.78 in 10.0 mi NW 18.4 mph - N/A   Clear
4:58 AM 53.1 °F 42.1 °F 66% 29.80 in 10.0 mi NW 17.3 mph - N/A   Clear
5:58 AM 52.0 °F 41.0 °F 66% 29.81 in 10.0 mi WNW 13.8 mph - N/A   Clear
6:58 AM 52.0 °F 39.9 °F 63% 29.81 in 10.0 mi WNW 16.1 mph - N/A   Clear
8:58 AM 55.0 °F 39.9 °F 57% 29.85 in 10.0 mi West 19.6 mph - N/A   Clear
9:58 AM 57.0 °F 39.9 °F 53% 29.85 in 10.0 mi WNW 17.3 mph - N/A   Clear
10:58 AM 60.1 °F 42.1 °F 51% 29.85 in 10.0 mi WNW 18.4 mph 28.8 mph N/A   Clear
11:58 AM 61.0 °F 41.0 °F 48% 29.86 in 10.0 mi NW 19.6 mph - N/A   Clear
12:58 PM 63.0 °F 43.0 °F 48% 29.83 in 10.0 mi WNW 18.4 mph 24.2 mph N/A   Clear
1:58 PM 64.0 °F 43.0 °F 46% 29.80 in 10.0 mi WNW 18.4 mph - N/A   Clear
2:58 PM 64.9 °F 43.0 °F 45% 29.79 in 10.0 mi WNW 16.1 mph - N/A   Clear
3:58 PM 64.9 °F 43.0 °F 45% 29.79 in 10.0 mi NW 16.1 mph - N/A   Clear
4:58 PM 64.9 °F 43.0 °F 45% 29.78 in 10.0 mi WNW 18.4 mph 21.9 mph N/A   Clear
5:58 PM 63.0 °F 44.1 °F 50% 29.80 in 10.0 mi WNW 12.7 mph - N/A   Clear
6:58 PM 60.1 °F 45.0 °F 57% 29.81 in 10.0 mi West 8.1 mph - N/A   Clear
7:58 PM 57.9 °F 45.0 °F 62% 29.85 in 10.0 mi West 8.1 mph - N/A   Clear
8:58 PM 57.9 °F 44.1 °F 60% 29.87 in 10.0 mi West 9.2 mph - N/A   Clear
9:58 PM 57.0 °F 44.1 °F 62% 29.88 in 10.0 mi WNW 10.4 mph - N/A   Clear
10:58 PM 57.0 °F 43.0 °F 59% 29.90 in 10.0 mi WNW 10.4 mph - N/A   Clear
11:58 PM 57.0 °F 43.0 °F 59% 29.90 in 10.0 mi West 8.1 mph - N/A   Clear